Weather History for KFMH - September, 2013

Change the Weather History Date:

Monday, September 23, 2013

  Actual Average Record
Temperature  
Mean Temperature 53 °F -  
Max Temperature 62 °F 67 °F 82 °F (2005)
Min Temperature 44 °F 50 °F 42 °F (1996)
Degree Days  
Heating Degree Days 12    
Growing Degree Days 3 (Base 50)    
Moisture  
Dew Point 43 °F    
Average Humidity 69    
Maximum Humidity 93    
Minimum Humidity 45    
Precipitation  
Precipitation 0.00 in - - ()
Sea Level Pressure  
Sea Level Pressure 29.91 in    
Wind  
Wind Speed 6 mph (NNW)    
Max Wind Speed 15 mph    
Max Gust Speed 20 mph    
Visibility 10 miles    
Events      
Averages and records for this station are not official NWS values.
T = Trace of Precipitation, MM = Missing Value Source: NWS Daily Summary

Daily Weather History Graph

Daily Weather History Graph

Search for Another Location

Airport or City:

Trip Planner

Search our weather history database for the weather conditions in past years. The results will help you decide how hot, cold, wet, or windy it might be!

Date:

Astronomy

Sep. 23, 2013 Rise Set
Actual Time 6:30 AM EDT 6:37 PM EDT
Civil Twilight 6:03 AM EDT 7:04 PM EDT
Nautical Twilight 5:30 AM EDT 7:37 PM EDT
Astronomical Twilight 4:57 AM EDT 8:10 PM EDT
Moon 9:03 PM EDT (9/23) 10:50 AM EDT (9/23)
Length of Visible Light 13h 01m
Length of Day
12h 06m
Waning Gibbous, 81% of the Moon is Illuminated
Sep 23
Waning Gibbous
Sep 26
Last Quarter
Oct 4
New
Oct 11
First Quarter
Oct 18
Full

Hourly Weather History & Observations

Time (EDT) Temp. Windchill Dew Point Humidity Pressure Visibility Wind Dir Wind Speed Gust Speed Precip Events Conditions
12:15 AM 50.0 °F - 46.4 °F 87% 29.81 in 10.0 mi NNW 4.6 mph - N/A   Clear
12:35 AM 50.0 °F - 46.4 °F 87% 29.82 in 10.0 mi NNW 3.5 mph - N/A   Clear
12:55 AM 50.0 °F - 46.4 °F 87% 29.82 in 10.0 mi NW 3.5 mph - N/A   Clear
1:15 AM 50.0 °F - 46.4 °F 87% 29.83 in 10.0 mi North 4.6 mph - N/A   Clear
1:35 AM 48.2 °F - 46.4 °F 93% 29.83 in 10.0 mi NNW 4.6 mph - N/A   Clear
1:55 AM 48.2 °F - 46.4 °F 93% 29.83 in 10.0 mi NW 5.8 mph - N/A   Clear
2:15 AM 48.2 °F - 44.6 °F 87% 29.83 in 10.0 mi NNW 5.8 mph - N/A   Clear
2:35 AM 48.2 °F - 44.6 °F 87% 29.83 in 10.0 mi NNW 4.6 mph - N/A   Clear
2:55 AM 48.2 °F - 44.6 °F 87% 29.84 in 10.0 mi NNW 4.6 mph - N/A   Clear
3:15 AM 48.2 °F - 42.8 °F 82% 29.84 in 10.0 mi NNW 8.1 mph - N/A   Clear
3:35 AM 48.2 °F - 41.0 °F 76% 29.84 in 10.0 mi NNW 6.9 mph - N/A   Clear
3:55 AM 46.4 °F 43.5 °F 41.0 °F 81% 29.85 in 10.0 mi NW 5.8 mph - N/A   Clear
4:15 AM 46.4 °F 43.5 °F 41.0 °F 81% 29.86 in 10.0 mi NW 5.8 mph - N/A   Clear
4:35 AM 46.4 °F 43.5 °F 41.0 °F 81% 29.86 in 10.0 mi NNW 5.8 mph - N/A   Clear
4:55 AM 46.4 °F 44.3 °F 41.0 °F 81% 29.86 in 10.0 mi NW 4.6 mph - N/A   Clear
5:15 AM 46.4 °F 43.5 °F 41.0 °F 81% 29.87 in 10.0 mi NW 5.8 mph - N/A   Clear
5:35 AM 44.6 °F 42.2 °F 41.0 °F 87% 29.87 in 10.0 mi NW 4.6 mph - N/A   Clear
5:55 AM 44.6 °F 42.2 °F 41.0 °F 87% 29.88 in 10.0 mi NW 4.6 mph - N/A   Clear
6:15 AM 44.6 °F 41.4 °F 41.0 °F 87% 29.88 in 10.0 mi NW 5.8 mph - N/A   Clear
6:35 AM 44.6 °F 43.1 °F 39.2 °F 81% 29.89 in 10.0 mi WNW 3.5 mph - N/A   Clear
6:55 AM 44.6 °F 42.2 °F 39.2 °F 81% 29.89 in 10.0 mi NW 4.6 mph - N/A   Clear
7:15 AM 46.4 °F 44.3 °F 41.0 °F 81% 29.90 in 10.0 mi NW 4.6 mph - N/A   Clear
7:35 AM 46.4 °F 41.9 °F 41.0 °F 81% 29.90 in 10.0 mi NNW 9.2 mph - N/A   Clear
7:55 AM 48.2 °F - 41.0 °F 76% 29.90 in 10.0 mi NW 10.4 mph 17.3 mph N/A   Clear
8:15 AM 48.2 °F - 41.0 °F 76% 29.90 in 10.0 mi NW 12.7 mph - N/A   Clear
8:35 AM 50.0 °F - 41.0 °F 71% 29.90 in 10.0 mi NNW 10.4 mph 19.6 mph N/A   Clear
8:55 AM 51.8 °F - 41.0 °F 67% 29.91 in 10.0 mi NNW 12.7 mph 19.6 mph N/A   Clear
9:15 AM 53.6 °F - 41.0 °F 62% 29.91 in 10.0 mi NNW 12.7 mph 17.3 mph N/A   Clear
9:35 AM 53.6 °F - 39.2 °F 58% 29.91 in 10.0 mi NNW 11.5 mph 16.1 mph N/A   Unknown
9:55 AM 55.4 °F - 41.0 °F 58% 29.91 in 10.0 mi NW 11.5 mph 16.1 mph N/A   Clear
10:15 AM 55.4 °F - 41.0 °F 58% 29.91 in 10.0 mi NNW 11.5 mph 18.4 mph N/A   Clear
10:35 AM 57.2 °F - 41.0 °F 55% 29.91 in 10.0 mi NNW 10.4 mph - N/A   Clear
10:55 AM 57.2 °F - 41.0 °F 55% 29.90 in 10.0 mi NW 8.1 mph 16.1 mph N/A   Clear
11:15 AM 57.2 °F - 41.0 °F 55% 29.91 in 10.0 mi North 8.1 mph - N/A   Clear
11:35 AM 57.2 °F - 41.0 °F 55% 29.91 in 10.0 mi WNW 10.4 mph - N/A   Clear
11:55 AM 59.0 °F - 41.0 °F 51% 29.91 in 10.0 mi NW 8.1 mph - N/A   Clear
12:15 PM 59.0 °F - 41.0 °F 51% 29.90 in 10.0 mi North 6.9 mph - N/A   Clear
12:35 PM 59.0 °F - 41.0 °F 51% 29.91 in 10.0 mi WNW 9.2 mph - N/A   Clear
12:55 PM 59.0 °F - 41.0 °F 51% 29.91 in 10.0 mi NNW 5.8 mph - N/A   Clear
1:15 PM 60.8 °F - 41.0 °F 48% 29.90 in 10.0 mi NW 4.6 mph - N/A   Clear
1:35 PM 60.8 °F - 41.0 °F 48% 29.90 in 10.0 mi West 10.4 mph - N/A   Clear
2:15 PM 62.6 °F - 41.0 °F 45% 29.90 in 10.0 mi WNW 10.4 mph - N/A   Clear
2:35 PM 62.6 °F - 42.8 °F 48% 29.91 in 10.0 mi NW 8.1 mph 16.1 mph N/A   Clear
2:55 PM 62.6 °F - 41.0 °F 45% 29.90 in 10.0 mi NNW 5.8 mph - N/A   Clear
3:15 PM 62.6 °F - 41.0 °F 45% 29.90 in 10.0 mi NW 8.1 mph - N/A   Clear
3:35 PM 62.6 °F - 41.0 °F 45% 29.90 in 10.0 mi NW 8.1 mph - N/A   Clear
3:55 PM 62.6 °F - 46.4 °F 55% 29.90 in 10.0 mi NE 11.5 mph - N/A   Clear
4:15 PM 59.0 °F - 46.4 °F 63% 29.90 in 10.0 mi NE 6.9 mph - N/A   Clear
4:35 PM 59.0 °F - 44.6 °F 59% 29.90 in 10.0 mi NE 8.1 mph - N/A   Clear
4:55 PM 59.0 °F - 44.6 °F 59% 29.91 in 10.0 mi NE 6.9 mph - N/A   Clear
5:15 PM 59.0 °F - 44.6 °F 59% 29.91 in 10.0 mi NE 6.9 mph - N/A   Clear
5:35 PM 59.0 °F - 46.4 °F 63% 29.92 in 10.0 mi NNE 6.9 mph - N/A   Clear
5:55 PM 57.2 °F - 46.4 °F 67% 29.93 in 10.0 mi NE 5.8 mph - N/A   Clear
6:15 PM 55.4 °F - 46.4 °F 72% 29.93 in 10.0 mi ENE 5.8 mph - N/A   Clear
6:35 PM 53.6 °F - 46.4 °F 77% 29.94 in 10.0 mi NE 4.6 mph - N/A   Clear
6:55 PM 55.4 °F - 46.4 °F 72% 29.94 in 10.0 mi NNE 4.6 mph - N/A   Clear
7:15 PM 53.6 °F - 46.4 °F 77% 29.95 in 10.0 mi Calm Calm - N/A   Clear
7:35 PM 51.8 °F - 44.6 °F 76% 29.95 in 10.0 mi Calm Calm - N/A   Clear
7:55 PM 51.8 °F - 44.6 °F 76% 29.96 in 10.0 mi North 4.6 mph - N/A   Clear
8:15 PM 51.8 °F - 46.4 °F 82% 29.96 in 10.0 mi NNE 3.5 mph - N/A   Clear
8:35 PM 50.0 °F - 44.6 °F 82% 29.97 in 10.0 mi North 5.8 mph - N/A   Clear
8:55 PM 50.0 °F - 42.8 °F 76% 29.98 in 10.0 mi North 5.8 mph - N/A   Clear
9:15 PM 50.0 °F - 42.8 °F 76% 29.98 in 10.0 mi North 4.6 mph - N/A   Clear
9:35 PM 50.0 °F - 42.8 °F 76% 29.98 in 10.0 mi North 4.6 mph - N/A   Clear
9:55 PM 48.2 °F - 41.0 °F 76% 29.99 in 10.0 mi North 5.8 mph - N/A   Clear
10:15 PM 50.0 °F - 41.0 °F 71% 29.99 in 10.0 mi NNW 5.8 mph - N/A   Clear
10:35 PM 48.2 °F - 41.0 °F 76% 29.99 in 10.0 mi North 5.8 mph - N/A   Clear
10:55 PM 48.2 °F - 41.0 °F 76% 29.99 in 10.0 mi North 5.8 mph - N/A   Clear
11:15 PM 48.2 °F - 41.0 °F 76% 29.99 in 10.0 mi North 5.8 mph - N/A   Clear
11:35 PM 48.2 °F - 39.2 °F 71% 29.99 in 10.0 mi North 6.9 mph - N/A   Clear
11:55 PM 46.4 °F 42.9 °F 39.2 °F 76% 29.99 in 10.0 mi NNW 6.9 mph - N/A   Clear